Back to catalog

CZ-6A DEB

AlivePO
NORAD 64644·DEBRIS·🇨🇳 China

Launched Aug 6, 2024 from Taiyuan Satellite Launch Center

Loading…

Next Passes (next 24 hours)

TLE

FreshSource: Space-Track

Epoch: Sep 13, 2026, 07:12 UTC

1 64644U 24140AEJ 26256.30019655  .00000045  00000-0  17134-4 0  9994
2 64644  89.0212 268.2427 0078543 280.8201  78.4151 14.11544558102116

Track CZ-6A DEB in real time with AllMySat

Download on the App Store